Weather History for Litchfield, MN

Change the Weather History Date:

Friday, August 3, 2012

  Actual Average Record
Temperature  
Mean Temperature 76 °F -  
Max Temperature 89 °F 82 °F 97 °F (1964)
Min Temperature 64 °F 59 °F 42 °F (1971)
Cooling Degree Days 12    
Growing Degree Days 26 (Base 50)    
Moisture  
Dew Point 63 °F    
Average Humidity 70    
Maximum Humidity 100    
Minimum Humidity 38    
Precipitation  
Precipitation 0.00 in - - ()
Sea Level Pressure  
Sea Level Pressure 29.85 in    
Wind  
Wind Speed 5 mph (SE)    
Max Wind Speed 21 mph    
Max Gust Speed 36 mph    
Visibility 9 miles    
Events Rain , Thunderstorm    
Averages and records for this station are not official NWS values.
T = Trace of Precipitation, MM = Missing Value Source: NWS Daily Summary

Daily Weather History Graph

Daily Weather History Graph

Search for Another Location

Airport:

Trip Planner

Search our weather history database for the weather conditions in past years. The results will help you decide how hot, cold, wet, or windy it might be!

Date:

Astronomy

Aug. 03, 2012 Rise Set
Actual Time 6:05 AM CDT 8:41 PM CDT
Civil Twilight 5:32 AM CDT 9:14 PM CDT
Nautical Twilight 4:50 AM CDT 9:56 PM CDT
Astronomical Twilight 4:02 AM CDT 10:44 PM CDT
Moon 9:10 PM CDT (8/3) 7:57 AM CDT (8/3)
Length of Visible Light 15h 42m
Length of Day
14h 35m
Full, 97% of the Moon is Illuminated
Aug 3
Full
Aug 9
Last Quarter
Aug 17
New
Aug 24
First Quarter
Aug 31
Full

Hourly Weather History & Observations

Time (CDT) Temp. Heat Index Dew Point Humidity Pressure Visibility Wind Dir Wind Speed Gust Speed Precip Events Conditions
12:12 AM 66.2 °F - 62.6 °F 88% 29.90 in 10.0 mi Calm Calm - N/A   Clear
12:33 AM 66.2 °F - 62.6 °F 88% 29.90 in 10.0 mi Calm Calm - N/A   Clear
12:53 AM 68.0 °F - 64.4 °F 88% 29.90 in 10.0 mi Calm Calm - N/A   Scattered Clouds
1:13 AM 66.2 °F - 64.4 °F 94% 29.90 in 10.0 mi Calm Calm - N/A   Scattered Clouds
1:33 AM 66.2 °F - 62.6 °F 88% 29.89 in 10.0 mi Calm Calm - N/A   Scattered Clouds
1:53 AM 66.2 °F - 64.4 °F 94% 29.90 in 10.0 mi Calm Calm - N/A   Scattered Clouds
2:13 AM 66.2 °F - 62.6 °F 88% 29.89 in 10.0 mi Calm Calm - N/A   Clear
2:33 AM 66.2 °F - 64.4 °F 94% 29.89 in 10.0 mi Calm Calm - N/A   Unknown
2:53 AM 66.2 °F - 62.6 °F 88% 29.88 in 10.0 mi Calm Calm - N/A   Unknown
3:13 AM 66.2 °F - 62.6 °F 88% 29.89 in 10.0 mi Calm Calm - N/A   Unknown
3:33 AM 64.4 °F - 62.6 °F 94% 29.89 in 10.0 mi Calm Calm - N/A   Unknown
3:53 AM 64.4 °F - 62.6 °F 94% 29.89 in 10.0 mi Calm Calm - N/A   Clear
4:33 AM 64.4 °F - 62.6 °F 94% 29.89 in 10.0 mi Calm Calm - N/A   Clear
4:53 AM 64.4 °F - 62.6 °F 94% 29.89 in 5.0 mi Calm Calm - N/A   Clear
5:13 AM 64.4 °F - 60.8 °F 88% 29.89 in 7.0 mi Calm Calm - N/A   Clear
5:33 AM 64.4 °F - 60.8 °F 88% 29.89 in 7.0 mi East 3.5 mph - N/A   Clear
5:53 AM 64.4 °F - 60.8 °F 88% 29.89 in 7.0 mi Calm Calm - N/A   Clear
6:13 AM 64.4 °F - 60.8 °F 88% 29.89 in 7.0 mi Calm Calm - N/A   Clear
6:33 AM 66.2 °F - 60.8 °F 83% 29.89 in 10.0 mi SE 3.5 mph - N/A   Clear
6:53 AM 66.2 °F - 60.8 °F 83% 29.89 in 10.0 mi Calm Calm - N/A   Clear
7:13 AM 66.2 °F - 60.8 °F 83% 29.89 in 10.0 mi Calm Calm - N/A   Clear
7:33 AM 68.0 °F - 62.6 °F 83% 29.89 in 10.0 mi Calm Calm - N/A   Clear
7:53 AM 69.8 °F - 64.4 °F 83% 29.89 in 10.0 mi SE 3.5 mph - N/A   Clear
8:13 AM 71.6 °F - 66.2 °F 83% 29.89 in 10.0 mi SE 4.6 mph - N/A   Clear
8:33 AM 71.6 °F - 68.0 °F 88% 29.90 in 10.0 mi Calm Calm - N/A   Clear
8:48 AM 73.4 °F - 69.8 °F 88% 29.89 in 10.0 mi SSE 3.5 mph - N/A   Clear
11:26 AM - - - N/A% 29.88 in - SE 12.7 mph - N/A   Unknown
11:28 AM 84.2 °F - - N/A% 29.87 in - SE 11.5 mph 18.4 mph N/A   Unknown
11:33 AM 84.2 °F 85.6 °F 64.4 °F 51% 29.87 in 10.0 mi SE 12.7 mph 18.4 mph N/A   Unknown
11:53 AM 84.2 °F 86.6 °F 66.2 °F 55% 29.88 in 10.0 mi SSE 11.5 mph - N/A   Clear
12:13 PM 86.0 °F 87.3 °F 64.4 °F 48% 29.87 in 10.0 mi SE 9.2 mph - N/A   Clear
12:33 PM 86.0 °F 87.3 °F 64.4 °F 48% 29.87 in 10.0 mi SE 13.8 mph - N/A   Clear
12:53 PM 86.0 °F 86.6 °F 62.6 °F 45% 29.87 in 10.0 mi SE 12.7 mph - N/A   Clear
1:13 PM 87.8 °F 88.5 °F 62.6 °F 43% 29.86 in 10.0 mi SSE 8.1 mph - N/A   Clear
1:33 PM 87.8 °F 89.4 °F 64.4 °F 46% 29.86 in 10.0 mi ESE 11.5 mph 18.4 mph N/A   Clear
1:53 PM 87.8 °F 89.4 °F 64.4 °F 46% 29.85 in 10.0 mi SE 12.7 mph 17.3 mph N/A   Clear
2:13 PM 87.8 °F 89.4 °F 64.4 °F 46% 29.85 in 10.0 mi ESE 15.0 mph - N/A   Clear
2:33 PM 89.6 °F 91.1 °F 64.4 °F 43% 29.84 in 10.0 mi SE 12.7 mph 18.4 mph N/A   Clear
2:53 PM 89.6 °F 91.1 °F 64.4 °F 43% 29.84 in 10.0 mi ESE 13.8 mph 17.3 mph N/A   Clear
3:13 PM 89.6 °F 91.1 °F 64.4 °F 43% 29.83 in 10.0 mi ESE 15.0 mph 18.4 mph N/A   Clear
3:33 PM 89.6 °F 90.1 °F 62.6 °F 40% 29.82 in 10.0 mi SE 15.0 mph 20.7 mph N/A   Clear
3:53 PM 89.6 °F 91.1 °F 64.4 °F 43% 29.81 in 10.0 mi SE 13.8 mph - N/A   Clear
4:13 PM 89.6 °F 90.1 °F 62.6 °F 40% 29.80 in 10.0 mi SE 15.0 mph - N/A   Clear
4:33 PM 89.6 °F 89.5 °F 60.8 °F 38% 29.80 in 10.0 mi SE 15.0 mph 21.9 mph N/A   Clear
4:53 PM 89.6 °F 89.5 °F 60.8 °F 38% 29.79 in 10.0 mi SE 15.0 mph 21.9 mph N/A   Clear
5:13 PM 89.6 °F 89.5 °F 60.8 °F 38% 29.78 in 10.0 mi SE 16.1 mph - N/A   Clear
5:33 PM 89.6 °F 90.1 °F 62.6 °F 40% 29.78 in 10.0 mi SE 10.4 mph 13.8 mph N/A   Clear
5:53 PM 89.6 °F 90.1 °F 62.6 °F 40% 29.78 in 10.0 mi SE 13.8 mph 21.9 mph N/A   Clear
6:13 PM 87.8 °F 88.5 °F 62.6 °F 43% 29.77 in 10.0 mi SE 12.7 mph - N/A   Clear
6:33 PM 87.8 °F 88.5 °F 62.6 °F 43% 29.76 in 10.0 mi SE 12.7 mph - N/A   Clear
6:53 PM 84.2 °F 85.6 °F 64.4 °F 51% 29.76 in 10.0 mi SE 12.7 mph 18.4 mph N/A   Scattered Clouds
7:13 PM 82.4 °F 83.9 °F 64.4 °F 54% 29.75 in 10.0 mi ESE 13.8 mph 19.6 mph N/A   Scattered Clouds
7:33 PM 82.4 °F 83.9 °F 64.4 °F 54% 29.76 in 10.0 mi SE 10.4 mph - N/A   Clear
7:52 PM 80.6 °F 82.3 °F 64.4 °F 58% 29.75 in 10.0 mi SE 11.5 mph - N/A   Clear
8:33 PM 80.6 °F 82.3 °F 64.4 °F 58% 29.75 in 10.0 mi SE 9.2 mph - N/A Thunderstorm Clear
8:53 PM 78.8 °F - 64.4 °F 61% 29.75 in 10.0 mi ESE 9.2 mph - N/A Thunderstorm Clear
9:33 PM 78.8 °F - 66.2 °F 65% 29.76 in 10.0 mi SE 8.1 mph - N/A Thunderstorm Scattered Clouds
9:53 PM 78.8 °F - 66.2 °F 65% 29.78 in 10.0 mi SSE 4.6 mph - N/A Thunderstorm Unknown
10:13 PM 66.2 °F - 64.4 °F 94% 29.86 in 1.5 mi WNW 20.7 mph 35.7 mph N/A Rain , Thunderstorm Heavy Thunderstorms and Rain
10:33 PM 64.4 °F - 62.6 °F 94% 29.89 in 7.0 mi South 3.5 mph - N/A Rain , Thunderstorm Thunderstorms and Rain
10:53 PM 64.4 °F - 64.4 °F 100% 29.85 in 3.0 mi Calm Calm - N/A Rain , Thunderstorm Thunderstorms and Rain
11:13 PM 64.4 °F - 64.4 °F 100% 29.79 in 7.0 mi ESE 13.8 mph - N/A Rain , Thunderstorm Rain
11:33 PM 64.4 °F - 64.4 °F 100% 29.79 in 10.0 mi SE 6.9 mph - N/A Rain , Thunderstorm Light Thunderstorms and Rain
11:53 PM 64.4 °F - 64.4 °F 100% 29.81 in 10.0 mi SSE 5.8 mph - N/A Thunderstorm Thunderstorm